Flag for Hungary Weather past 2 weeks in Győr, Hungary

Now
63 °F

Mild.


Feels Like: 63 °F
Forecast: 61 / 76 °F
Wind: 1 mph from Northeast

Location: Gyor

Current Time: Aug 30, 2014 at 6:41:02 PM

Latest Report: Aug 30, 2014 at 6:00 PM


Visibility: N/A

Pressure: 30.07 "Hg

Humidity: 94%

Dew point: 61 °F

Location of GyőrLocation

Historic Weather in Győr — Graph

°F

Győr temperature yesterday

Maximum temperature yesterday: 76 °F (at 4:00 PM)
Minimum temperature yesterday: 47 °F (at 6:00 AM)
Average temperature yesterday: 61 °F

Past Weeks' High & Low Weather Summary

 TemperatureHumidityPressure
High78 °F (Aug 19, 2:00 PM)98% (Aug 23, 11:00 PM)30.15 "Hg (Aug 23, 11:00 PM)
Low47 °F (Aug 25, 5:00 AM)39% (Aug 28, 2:00 PM)29.73 "Hg (Aug 27, 4:00 AM)
Average62 °F75%29.99 "Hg
* Reported Aug 15 5:00 PM — Aug 30 5:00 PM, Győr, Weather by CustomWeather, © 2014

Note: Actual official high and low records may vary slightly from our data, if they occured in-between our weather recording intervals... More about our weather records

Advertising

Győr weather history for previous 24 hours

 ConditionsComfort  
Time TempWeatherWind HumidityBarometerVisibility
5:00 PM
Aug 30
64 °FMild.2 mph88%30.09 "HgN/A
4:00 PM70 °FMild.2 mph68%30.08 "HgN/A
3:00 PM73 °FMild.2 mph65%30.08 "HgN/A
2:00 PM74 °FMild.2 mph65%30.08 "HgN/A
1:00 PM74 °FMild.2 mph59%30.08 "HgN/A
12:00 PM72 °FMild.1 mph63%30.09 "HgN/A
11:00 AM72 °FMild.2 mph60%30.09 "HgN/A
10:00 AM70 °FMild.No wind61%30.08 "HgN/A
9:00 AM67 °FMild.1 mph63%30.08 "HgN/A
8:00 AM60 °FCool.No wind83%30.08 "HgN/A
7:00 AM55 °FCool.No wind93%30.08 "HgN/A
6:00 AM53 °FCool.No wind95%30.08 "HgN/A
5:00 AM52 °FCool.No wind96%30.08 "HgN/A
4:00 AM53 °FCool.No wind95%30.08 "HgN/A
3:00 AM53 °FCool.No wind94%30.09 "HgN/A
2:00 AM54 °FCool.No wind92%30.09 "HgN/A
1:00 AM56 °FCool.No wind89%30.09 "HgN/A
12:00 AM60 °FCool.No wind80%30.08 "HgN/A
11:00 PM
Aug 29
61 °FCool.1 mph77%30.08 "HgN/A
9:00 PM66 °FMild.1 mph63%30.07 "HgN/A
8:00 PM69 °FMild.2 mph57%30.06 "HgN/A
7:00 PM72 °FMild.3 mph51%30.06 "HgN/A
6:00 PM74 °FMild.5 mph46%30.06 "HgN/A
Weather by CustomWeather, © 2014

See weather overviewHow to use our weather pages